Tiempo cada hora Alimtau

Hoy, 31 Julio, Sábado

Tiempo Temperatura Precipitaciones Viento Presión Humedad
00:00 +28°C° 0 mm 6 mps 719 mmHg 27%
01:00 +27°C° 0 mm 5 mps 719 mmHg 29%
02:00 +26°C° 0 mm 5 mps 719 mmHg 31%
03:00 +25°C° 0 mm 4 mps 719 mmHg 33%
04:00 +24°C° 0 mm 3 mps 719 mmHg 34%
05:00 +24°C° 0 mm 2 mps 719 mmHg 35%
06:00 +26°C° 0 mm 2 mps 719 mmHg 31%
07:00 +28°C° 0 mm 3 mps 719 mmHg 27%
08:00 +30°C° 0 mm 3 mps 720 mmHg 22%
09:00 +33°C° 0 mm 3 mps 720 mmHg 19%
10:00 +35°C° 0 mm 2 mps 720 mmHg 17%
11:00 +37°C° 0 mm 2 mps 720 mmHg 14%
12:00 +38°C° 0 mm 2 mps 719 mmHg 13%
13:00 +39°C° 0 mm 2 mps 719 mmHg 13%
14:00 +40°C° 0 mm 2 mps 719 mmHg 12%
15:00 +40°C° 0 mm 3 mps 718 mmHg 12%
16:00 +40°C° 0 mm 3 mps 718 mmHg 11%
17:00 +42°C° 0 mm 4 mps 717 mmHg 10%
18:00 +40°C° 0 mm 4 mps 717 mmHg 11%
19:00 +37°C° 0 mm 5 mps 717 mmHg 12%
20:00 +36°C° 0 mm 5 mps 717 mmHg 13%
21:00 +34°C° 0 mm 5 mps 717 mmHg 14%
22:00 +33°C° 0 mm 4 mps 717 mmHg 15%
23:00 +32°C° 0 mm 4 mps 717 mmHg 17%

Mañana, 1 Agosto, Domingo

Tiempo Temperatura Precipitaciones Viento Presión Humedad
00:00 +30°C° 0 mm 4 mps 717 mmHg 17%
01:00 +29°C° 0 mm 3 mps 716 mmHg 18%
02:00 +28°C° 0 mm 2 mps 716 mmHg 19%
03:00 +28°C° 0 mm 2 mps 716 mmHg 21%
04:00 +27°C° 0 mm 1 mps 716 mmHg 23%
05:00 +26°C° 0 mm 1 mps 716 mmHg 25%
06:00 +28°C° 0 mm 1 mps 717 mmHg 23%
07:00 +29°C° 0 mm 2 mps 717 mmHg 22%
08:00 +31°C° 0 mm 2 mps 717 mmHg 20%
09:00 +33°C° 0 mm 3 mps 717 mmHg 19%
10:00 +34°C° 0 mm 3 mps 718 mmHg 18%
11:00 +36°C° 0 mm 3 mps 718 mmHg 17%
12:00 +37°C° 0.1 mm 2 mps 717 mmHg 15%
13:00 +39°C° 0.1 mm 2 mps 717 mmHg 14%
14:00 +40°C° 0.1 mm 2 mps 717 mmHg 12%
15:00 +40°C° 0 mm 2 mps 716 mmHg 12%
16:00 +41°C° 0 mm 2 mps 716 mmHg 12%
17:00 +42°C° 0 mm 3 mps 716 mmHg 11%
18:00 +39°C° 0 mm 3 mps 716 mmHg 12%
19:00 +37°C° 0 mm 4 mps 716 mmHg 12%
20:00 +35°C° 0 mm 4 mps 715 mmHg 13%
21:00 +34°C° 0 mm 4 mps 715 mmHg 13%
22:00 +33°C° 0 mm 4 mps 716 mmHg 13%
23:00 +31°C° 0 mm 3 mps 716 mmHg 14%

Pasado mañana, 2 Agosto, Lunes

Tiempo Temperatura Precipitaciones Viento Presión Humedad
00:00 +30°C° 0 mm 3 mps 715 mmHg 18%
01:00 +29°C° 0 mm 2 mps 715 mmHg 21%
02:00 +28°C° 0 mm 2 mps 715 mmHg 25%
03:00 +28°C° 0 mm 2 mps 715 mmHg 28%
04:00 +27°C° 0 mm 1 mps 715 mmHg 31%
05:00 +27°C° 0 mm 1 mps 716 mmHg 35%
06:00 +29°C° 0.1 mm 1 mps 716 mmHg 32%
07:00 +30°C° 0.1 mm 1 mps 717 mmHg 29%
08:00 +32°C° 0.1 mm 2 mps 717 mmHg 26%
09:00 +35°C° 0 mm 2 mps 717 mmHg 23%
10:00 +37°C° 0 mm 2 mps 717 mmHg 20%
11:00 +38°C° 0 mm 2 mps 717 mmHg 17%
12:00 +39°C° 0 mm 2 mps 717 mmHg 15%
13:00 +40°C° 0 mm 2 mps 717 mmHg 14%
14:00 +41°C° 0 mm 2 mps 717 mmHg 13%
15:00 +42°C° 0 mm 3 mps 716 mmHg 13%
16:00 +42°C° 0 mm 3 mps 716 mmHg 13%
17:00 +42°C° 0 mm 4 mps 716 mmHg 12%
18:00 +40°C° 0 mm 5 mps 716 mmHg 13%
19:00 +39°C° 0 mm 5 mps 716 mmHg 13%
20:00 +36°C° 0 mm 6 mps 716 mmHg 13%
21:00 +35°C° 0 mm 5 mps 716 mmHg 13%
22:00 +33°C° 0 mm 5 mps 716 mmHg 14%
23:00 +32°C° 0 mm 4 mps 716 mmHg 15%

3 Agosto, Martes

Tiempo Temperatura Precipitaciones Viento Presión Humedad
00:00 +30°C° 0 mm 3 mps 716 mmHg 17%
01:00 +29°C° 0 mm 3 mps 716 mmHg 20%
02:00 +28°C° 0 mm 2 mps 716 mmHg 22%
03:00 +28°C° 0 mm 2 mps 716 mmHg 24%
04:00 +27°C° 0 mm 1 mps 716 mmHg 26%
05:00 +27°C° 0 mm 1 mps 716 mmHg 28%
06:00 +29°C° 0 mm 2 mps 717 mmHg 26%
07:00 +31°C° 0 mm 2 mps 717 mmHg 24%
08:00 +33°C° 0 mm 3 mps 718 mmHg 22%
09:00 +35°C° 0 mm 3 mps 718 mmHg 19%
10:00 +38°C° 0 mm 4 mps 718 mmHg 16%
11:00 +41°C° 0 mm 4 mps 718 mmHg 13%
12:00 +42°C° 0 mm 4 mps 718 mmHg 12%
13:00 +43°C° 0 mm 4 mps 718 mmHg 10%
14:00 +44°C° 0 mm 4 mps 717 mmHg 8%
15:00 +44°C° 0 mm 3 mps 717 mmHg 8%
16:00 +44°C° 0 mm 3 mps 717 mmHg 7%
17:00 +43°C° 0 mm 2 mps 716 mmHg 7%
18:00 +40°C° 0 mm 3 mps 716 mmHg 9%
19:00 +38°C° 0 mm 3 mps 717 mmHg 11%
20:00 +36°C° 0 mm 3 mps 717 mmHg 13%
21:00 +35°C° 0 mm 3 mps 717 mmHg 15%
22:00 +33°C° 0 mm 3 mps 717 mmHg 16%
23:00 +31°C° 0 mm 3 mps 717 mmHg 18%

4 Agosto, Miércoles

Tiempo Temperatura Precipitaciones Viento Presión Humedad
00:00 +30°C° 0 mm 3 mps 717 mmHg 20%
01:00 +30°C° 0 mm 2 mps 717 mmHg 21%
02:00 +29°C° 0 mm 2 mps 717 mmHg 23%
03:00 +29°C° 0 mm 2 mps 718 mmHg 24%
04:00 +28°C° 0 mm 1 mps 718 mmHg 25%
05:00 +28°C° 0 mm 1 mps 718 mmHg 25%
06:00 +30°C° 0 mm 2 mps 719 mmHg 23%
07:00 +31°C° 0 mm 3 mps 719 mmHg 20%
08:00 +34°C° 0 mm 4 mps 720 mmHg 18%
09:00 +36°C° 0 mm 4 mps 720 mmHg 16%
10:00 +37°C° 0 mm 3 mps 720 mmHg 14%
11:00 +39°C° 0 mm 3 mps 720 mmHg 12%
12:00 +40°C° 0 mm 3 mps 719 mmHg 11%
13:00 +41°C° 0 mm 2 mps 719 mmHg 10%
14:00 +43°C° 0 mm 2 mps 719 mmHg 8%
15:00 +43°C° 0 mm 2 mps 718 mmHg 8%
16:00 +43°C° 0 mm 2 mps 718 mmHg 7%
17:00 +43°C° 0 mm 2 mps 718 mmHg 7%
18:00 +42°C° 0 mm 3 mps 718 mmHg 9%
19:00 +39°C° 0 mm 3 mps 718 mmHg 10%
20:00 +37°C° 0 mm 3 mps 718 mmHg 12%
21:00 +36°C° 0 mm 3 mps 718 mmHg 14%
22:00 +34°C° 0 mm 3 mps 718 mmHg 16%
23:00 +33°C° 0 mm 3 mps 718 mmHg 18%

5 Agosto, Jueves

Tiempo Temperatura Precipitaciones Viento Presión Humedad
00:00 +31°C° 0 mm 2 mps 718 mmHg 20%
01:00 +30°C° 0 mm 2 mps 717 mmHg 22%
02:00 +29°C° 0 mm 2 mps 717 mmHg 24%
03:00 +29°C° 0 mm 2 mps 717 mmHg 24%
04:00 +28°C° 0 mm 3 mps 718 mmHg 25%
05:00 +28°C° 0 mm 3 mps 718 mmHg 25%
06:00 +30°C° 0 mm 4 mps 718 mmHg 22%
07:00 +33°C° 0 mm 4 mps 718 mmHg 19%
08:00 +34°C° 0 mm 5 mps 719 mmHg 16%
09:00 +36°C° 0 mm 4 mps 719 mmHg 14%
10:00 +38°C° 0 mm 3 mps 719 mmHg 12%
11:00 +40°C° 0 mm 2 mps 718 mmHg 11%
12:00 +41°C° 0 mm 2 mps 718 mmHg 10%
13:00 +43°C° 0 mm 2 mps 718 mmHg 9%
14:00 +44°C° 0 mm 1 mps 718 mmHg 7%
15:00 +45°C° 0 mm 2 mps 717 mmHg 7%
16:00 +45°C° 0 mm 2 mps 717 mmHg 7%
17:00 +45°C° 0 mm 3 mps 717 mmHg 7%
18:00 +43°C° 0 mm 3 mps 716 mmHg 8%
19:00 +41°C° 0 mm 4 mps 716 mmHg 10%
20:00 +39°C° 0 mm 5 mps 716 mmHg 12%
21:00 +37°C° 0 mm 5 mps 716 mmHg 12%
22:00 +36°C° 0 mm 6 mps 716 mmHg 13%
23:00 +34°C° 0 mm 6 mps 716 mmHg 13%
Mostrar más

Necesitamos Su Consentimiento

Meteoprog y nuestros Proveedores de Servicios pueden almacenar y acceder a sus datos personales como cookies, identificadores de dispositivo u otras tecnologías similares de su dispositivo y procesar dichos datos para personalizar contenido y anuncios, además de ofrecer funciones de redes sociales y analizar el tráfico.

  • Almacenar y/o acceder a información en su dispositivo

    Se puede almacenar o acceder a cookies, identificadores de dispositivo u otra información de su dispositivo para los fines anteriormente indicados.

  • Anuncios y contenido personalizados, medición de anuncios y contenido, percepciones del público, y desarrollo de productos

    Los anuncios y el contenido pueden personalizarse en base a su perfil. Se pueden añadir más datos para personalizar mejor los anuncios y contenidos. Se puede medir el rendimiento de los anuncios y contenidos. Se puede obtener la percepción sobre el público que ha visto los anuncios y contenidos. Dichos datos pueden usarse para desarrollar o mejorar la experiencia del usuario, sistemas y software.

Al hacer clic en ‘Estoy De Acuerdo’ usted permitirá el uso de las cookies, identificadores de dispositivo, balizas web u otras tecnologías similares indicadas. Su configuración puede cambiarse desde el navegador de su dispositivo.

Para ciertos fines, los intereses legítimos pueden ser considerados por encima del consentimiento. Puede leer más sobre ello en nuestra Política de Privacidad y Cookies.